Airfield :
LOGIN :

Register | Disclaimer

   EN    FR    IT 

 










Legend :    VFR   Marginal VFR   IFR   Intensive IFR   Very Intensive IFR
Visi :
Ceiling :
>= 8 km
>= 3000ft
5 to 8 km
1000 to 3000 ft
1500m to 5 km
500 to 1000 ft
800 to 1500m
200 to 500 ft
< 800m
< 200 ft
Symbols :   Thunderstorms  Fog  Heavy snow  Heavy precipitations  Wind > 20 kt
SIGMETs :     Misc.  Thunderstorms  Icing  Turbulence  Mountain Waves  Volcanic Ashes







- Airport Elevation : 24 ft
- IATA code : SGD


EKSB - Sonderborg

CURRENT METAR :
  • 211750Z 29006KT 270V340 2500 BR BKN003 08/07 Q1022

EXPIRED METARs :
  • 211650Z 29007KT 250V340 3500 BR BKN003 08/07 Q1021
  • 211620Z 26009KT 230V300 4500 BR BKN004 08/07 Q1021
  • 211550Z 27008KT 240V320 6000 BKN005 08/07 Q1021
  • 211520Z 28007KT 240V340 6000 BKN005 08/07 Q1020

TAF TAF EKSB
Valid from the 21 at 15:00 until the 21 at 23:00 UTC


211459Z 2115/2123 26010KT 5000 BKN006
TEMPO 2115/2123 1200 BR BKN002
BECMG 2121/2123 01010KT
No reported NOTAMs for that airfield.



MET'MAP, your aeronautical weather chart ! - Copyright ORBIFLY December 2007 - Disclaimer

ORBIFLY MET'MAP TEAM :

Programming & Development : Alexandra Zaïnal
Concept & Development : Baudouin d'Aumeries
Co-Development & Prog : Marc-Olivier Méhu
Technical & hardware support : Manuel Goepfert

Contact : metmap@orbifly.com




SOURCES & CREDITS :

   NOAA